User: anonymous   Login
Location: Endfield
(51.6667°N, 0.0667°W)
Time: 10:15:57
(UTC+00:00)
Language:

Cosmos 1726 - Orbit

View from above orbital plane
View from above orbital plane
View from above satellite
View from above satellite

Ground track
Ground track

The orbit data is extracted from the following two-line orbital elements,

1 16495U 86006A   24203.79778627  .00074619  00000-0  75723-3 0  9993
2 16495  82.4597 327.1667 0003911  19.3588 340.7818 15.64938643112433
Epoch (UTC): 21 July 2024 19:08:48
Eccentricity: 0.0003911
inclination: 82.4597°
perigee height: 371 km
apogee height: 376 km
right ascension of ascending node: 327.1667°
argument of perigee: 19.3588°
revolutions per day: 15.64938643
mean anomaly at epoch: 340.7818°
orbit number at epoch: 11243

The dashed part of the orbit path shows where the satellite is in the earth's shadow,  

DLR